Auchincruive, United Kingdom

3:40 PM GMT on February 20, 2017 (GMT +0000)
Prestwick

Weather History for EGPK - October, 2013

Change the Weather History Date:

Tuesday, October 22, 2013

  Actual Average Record
Temperature  
Mean Temperature 58 °F -  
Max Temperature 60 °F 50 °F 62 °F (1996)
Min Temperature 57 °F 39 °F 32 °F (1997)
Degree Days  
Heating Degree Days 6    
Growing Degree Days 8 (Base 50)    
Moisture  
Dew Point 54 °F    
Average Humidity 85    
Maximum Humidity 94    
Minimum Humidity 77    
Precipitation  
Precipitation 0.00 in - - ()
Sea Level Pressure  
Sea Level Pressure 29.14 in    
Wind  
Wind Speed 10 mph ()    
Max Wind Speed 18 mph    
Max Gust Speed -    
Visibility 5.9 miles    
Events Rain    
Averages and records for this station are not official NWS values.
T = Trace of Precipitation, MM = Missing Value Source: Averaged Metar Reports

Daily Weather History Graph

Daily Weather History Graph

Search for Another Location

Airport or City:

Trip Planner

Search our weather history database for the weather conditions in past years. The results will help you decide how hot, cold, wet, or windy it might be!

Date:

Astronomy

Oct. 22, 2013 Rise Set
Actual Time 8:03 AM BST 6:01 PM BST
Civil Twilight 7:25 AM BST 6:39 PM BST
Nautical Twilight 6:42 AM BST 7:21 PM BST
Astronomical Twilight 6:00 AM BST 8:04 PM BST
Moon 8:01 PM BST (10/22) 11:47 AM BST (10/22)
Length of Visible Light 11h 13m
Length of Day
9h 58m
Waning Gibbous, 88% of the Moon is Illuminated
Oct 22
Waning Gibbous
Oct 27
Last Quarter
Nov 3
New
Nov 10
First Quarter
Nov 17
Full

Hourly Weather History & Observations

Time (BST) Temp. Dew Point Humidity Pressure Visibility Wind Dir Wind Speed Gust Speed Precip Events Conditions
12:20 AM 59.0 °F 57.2 °F 94% 29.24 in 6.2 mi South 11.5 mph - N/A Rain Light Rain
12:50 AM 59.0 °F 57.2 °F 94% 29.21 in 3.1 mi South 13.8 mph - N/A Rain Rain
1:50 AM 59.0 °F 57.2 °F 94% 29.21 in 3.1 mi SSW 13.8 mph - N/A Rain Light Rain
2:50 AM 59.0 °F 57.2 °F 94% 29.21 in 3.1 mi South 11.5 mph - N/A Rain Light Rain
3:50 AM 59.0 °F 57.2 °F 94% 29.18 in 3.1 mi South 16.1 mph - N/A   Mostly Cloudy
4:50 AM 59.0 °F 55.4 °F 88% 29.18 in 6.2 mi South 18.4 mph - N/A   Mostly Cloudy
5:50 AM 59.0 °F 53.6 °F 82% 29.18 in 6.2 mi South 13.8 mph - N/A   Mostly Cloudy
6:50 AM 59.0 °F 53.6 °F 82% 29.18 in 6.2 mi South 11.5 mph - N/A   Mostly Cloudy
7:20 AM 59.0 °F 53.6 °F 82% 29.15 in 6.2 mi South 12.7 mph - N/A   Mostly Cloudy
7:50 AM 59.0 °F 53.6 °F 82% 29.18 in 6.2 mi South 10.4 mph - N/A   Mostly Cloudy
8:20 AM 57.2 °F 53.6 °F 88% 29.18 in 6.2 mi South 10.4 mph - N/A   Scattered Clouds
8:50 AM 57.2 °F 53.6 °F 88% 29.15 in 6.2 mi South 10.4 mph - N/A   Scattered Clouds
9:20 AM 57.2 °F 53.6 °F 88% 29.18 in 6.2 mi South 12.7 mph - N/A   Scattered Clouds
9:50 AM 57.2 °F 53.6 °F 88% 29.18 in 6.2 mi South 10.4 mph - N/A   Scattered Clouds
10:20 AM 57.2 °F 53.6 °F 88% 29.15 in 6.2 mi South 9.2 mph - N/A   Scattered Clouds
10:50 AM 57.2 °F 53.6 °F 88% 29.15 in 6.2 mi SSE 6.9 mph - N/A   Scattered Clouds
11:20 AM 57.2 °F 53.6 °F 88% 29.15 in 6.2 mi South 5.8 mph - N/A   Scattered Clouds
11:50 AM 59.0 °F 53.6 °F 82% 29.15 in 6.2 mi South 4.6 mph - N/A   Scattered Clouds
12:20 PM 59.0 °F 55.4 °F 88% 29.15 in 6.2 mi South 3.5 mph - N/A   Scattered Clouds
12:50 PM 59.0 °F 53.6 °F 82% 29.15 in 6.2 mi South 9.2 mph - N/A   Scattered Clouds
1:20 PM 59.0 °F 53.6 °F 82% 29.15 in 6.2 mi South 12.7 mph - N/A   Scattered Clouds
1:50 PM 59.0 °F 53.6 °F 82% 29.15 in 6.2 mi South 12.7 mph - N/A   Scattered Clouds
2:20 PM 59.0 °F 53.6 °F 82% 29.15 in 6.2 mi South 8.1 mph - N/A   Partly Cloudy
2:50 PM 60.8 °F 53.6 °F 77% 29.12 in 6.2 mi South 10.4 mph - N/A   Partly Cloudy
3:20 PM 60.8 °F 53.6 °F 77% 29.12 in 6.2 mi South 15.0 mph - N/A   Partly Cloudy
3:50 PM 59.0 °F 51.8 °F 77% 29.12 in 6.2 mi SSE 11.5 mph - N/A   Scattered Clouds
4:20 PM 59.0 °F 53.6 °F 82% 29.09 in 6.2 mi SSE 9.2 mph - N/A   Scattered Clouds
4:50 PM 59.0 °F 53.6 °F 82% 29.09 in 6.2 mi South 9.2 mph - N/A   Scattered Clouds
5:20 PM 59.0 °F 53.6 °F 82% 29.09 in 6.2 mi South 11.5 mph - N/A   Scattered Clouds
5:50 PM 59.0 °F 51.8 °F 77% 29.09 in 6.2 mi South 13.8 mph - N/A   Scattered Clouds
6:20 PM 57.2 °F 51.8 °F 82% 29.09 in 6.2 mi South 10.4 mph - N/A   Scattered Clouds
6:50 PM 59.0 °F 53.6 °F 82% 29.09 in 6.2 mi South 12.7 mph - N/A   Scattered Clouds
7:20 PM 57.2 °F 53.6 °F 88% 29.12 in 6.2 mi SSE 9.2 mph - N/A   Scattered Clouds
7:50 PM 57.2 °F 53.6 °F 88% 29.09 in 6.2 mi SSE 9.2 mph - N/A   Scattered Clouds
8:20 PM 57.2 °F 53.6 °F 88% 29.09 in 6.2 mi SSE 11.5 mph - N/A   Scattered Clouds
8:50 PM 57.2 °F 53.6 °F 88% 29.09 in 6.2 mi SSE 12.7 mph - N/A   Scattered Clouds
9:20 PM 59.0 °F 53.6 °F 82% 29.09 in 6.2 mi SSE 12.7 mph - N/A   Scattered Clouds
9:50 PM 59.0 °F 53.6 °F 82% 29.09 in 6.2 mi South 9.2 mph - N/A   Scattered Clouds
10:20 PM 57.2 °F 53.6 °F 88% 29.09 in 6.2 mi SSE 11.5 mph - N/A   Scattered Clouds
10:50 PM 57.2 °F 53.6 °F 88% 29.06 in 6.2 mi SSE 9.2 mph - N/A   Scattered Clouds
11:20 PM 57.2 °F 53.6 °F 88% 29.06 in 6.2 mi South 8.1 mph - N/A   Scattered Clouds
11:50 PM 57.2 °F 51.8 °F 82% 29.06 in 6.2 mi South 11.5 mph - N/A   Scattered Clouds